Regional Weather Roundup
Issued by NWS

Home | Current Version | Previous Version | Graphics & Text | Print | Product List | Glossary On
Versions: 1 2 3 4 5 6 7 8 9 10 11 12 13 14 15 16 17 18 19 20 21 22 23 24 25 26 27 28 29 30 31 32 33 34 35 36 37 38 39 40 41 42 43 44 45 46 47 48 49 50
000
ASUS43 KOAX 192102
RWRNE

WEATHER ROUNDUP FOR NEBRASKA
NATIONAL WEATHER SERVICE OMAHA NE
400 PM CDT THU APR 19 2018

NOTES: SATELLITE DATA IS BEING USED TO AUGMENT CLOUD COVER ABOVE
       12000 FEET.
       "FAIR" INDICATES FEW OR NO CLOUDS BELOW 12,000 FEET WITH NO
       SIGNIFICANT WEATHER AND/OR OBSTRUCTIONS TO VISIBILITY.


NEZ001>004-019>022-054>056-192200-
NEBRASKA PANHANDLE

CITY           SKY/WX    TMP DP  RH WIND       PRES   REMARKS
SCOTTSBLUFF    FAIR      61  30  31 S22G31    30.14F
ALLIANCE       FAIR      59  31  34 S24G38    30.20F
CHADRON        FAIR      61  30  31 S25G33    30.18F
GORDON         FAIR      59  29  32 SE14G22   30.22F
KIMBALL        FAIR      60  24  25 SE25G35   30.15F
SIDNEY         FAIR      60  27  28 SE29G39   30.19F
$$

NEZ057>060-069>072-079>082-192200-
SOUTHWEST NEBRASKA

CITY           SKY/WX    TMP DP  RH WIND       PRES   REMARKS
NORTH PLATTE   FAIR      60  31  33 SE17G26   30.29F
IMPERIAL       FAIR      61  28  28 E21G31    30.25F
LEXINGTON      FAIR      55  26  31 SE12      30.34F
MCCOOK         FAIR      60  29  30 SE17G24   30.29F
OGALLALA       FAIR      59  27  29 SE21G26   30.25F
$$

NEZ005>010-023>029-035>040-094-192200-
NORTH CENTRAL NEBRASKA

CITY           SKY/WX    TMP DP  RH WIND       PRES   REMARKS
VALENTINE      FAIR      54  30  40 SE14G23   30.32F
AINSWORTH      FAIR      51  29  43 SE16      30.34F
BROKEN BOW     FAIR      53  28  38 SE12      30.34F
O`NEILL        FAIR      53  23  31 E8        30.40F
ORD            FAIR      53  22  29 VRB7      30.37F
THEDFORD       FAIR      56  30  36 SE13      30.32F
$$

NEZ041-046>049-061>064-073>077-083>087-192200-
SOUTH CENTRAL NEBRASKA

CITY           SKY/WX    TMP DP  RH WIND       PRES   REMARKS
GRAND ISLAND   FAIR      54  28  36 E7        30.39F
AURORA         FAIR      55  24  29 E5        30.38F
HASTINGS       FAIR      55  29  36 E8        30.37F
HEBRON         FAIR      58  28  31 CALM      30.38F
HOLDREGE       FAIR      55  29  36 SE10      30.34F
KEARNEY        FAIR      55  28  35 E10       30.36F
YORK             N/A     55  27  33 CALM      30.39F
$$

NEZ011>018-030>034-042>045-192200-
NORTHEAST NEBRASKA

CITY           SKY/WX    TMP DP  RH WIND       PRES   REMARKS
NORFOLK        FAIR      53  23  31 NE6       30.39F
ALBION         FAIR      55  24  30 E7        30.39F
BLAIR          FAIR      56  30  36 CALM      30.41F
COLUMBUS       FAIR      56  21  25 VRB5      30.41F
FREMONT        FAIR      57  29  35 NE6       30.42F
TEKAMAH        FAIR      54  32  43 VRB5      30.42F
WAYNE          FAIR      53  23  30 NE5       30.42F
$$

NEZ050>053-065>068-078-088>093-192200-
SOUTHEAST NEBRASKA

CITY           SKY/WX    TMP DP  RH WIND       PRES   REMARKS
LINCOLN        FAIR      58  25  28 VRB5      30.42F
OMAHA EPPLEY   FAIR      57  28  33 VRB6      30.42F
BEATRICE       FAIR      58  29  34 CALM      30.39F
FALLS CITY     FAIR      58  28  32 CALM      30.40F
NEBRASKA CITY  FAIR      56  31  38 NE6       30.41F
PLATTSMOUTH    FAIR      56  28  33 E8        30.41F
$$

NEZ044-045-051>053-067-192200-
OMAHA AREA

CITY           SKY/WX    TMP DP  RH WIND       PRES   REMARKS
OMAHA EPPLEY   FAIR      57  28  33 VRB6      30.42F
BLAIR          FAIR      56  30  36 CALM      30.41F
FREMONT        FAIR      57  29  35 NE6       30.42F
MILLARD        FAIR      56  30  37 CALM      30.41F
PLATTSMOUTH    FAIR      56  28  33 E8        30.41F
WAHOO          FAIR      57  20  23 SE6       30.41F
$$




USA.gov is the U.S. government's official web portal to all federal, state and local government web resources and services.